Theta_e
349 349 351 353 354 354 353 356 358 358 358 357 356 356 354 354 356 358 359 361 363 365 367 367 365 365 366 365 364 363 363 363 363 361 361 361 359 358 358 358 357 356 355 355 354 353 351 350 348 346 346 346 345 343 340 340 341 341 340 341 340 340 338
348 346 348 351 354 355 354 356 359 359 358 358 357 356 355 354 355 358 360 362 364 365 367 367 367 367 366 366 365 365 364 363 363 361 361 361 360 359 359 358 358 357 356 355 354 353 352 351 349 347 345 344 344 342 342 342 342 341 341 341 340 340 338
351 349 348 350 354 357 355 355 358 360 358 359 358 357 356 355 356 358 359 361 364 366 367 368 368 368 368 367 366 365 365 363 363 362 361 360 360 359 359 359 359 357 356 355 354 353 352 351 349 348 345 344 344 343 343 343 342 342 341 341 340 339 338
350 352 351 352 355 358 357 355 357 360 359 357 358 358 357 357 357 358 358 359 364 367 368 367 368 369 368 368 368 367 366 365 364 363 361 360 360 360 360 359 359 357 355 354 354 353 352 352 350 348 346 345 345 344 344 343 342 342 341 340 340 339 338
347 350 350 352 356 358 358 356 356 359 359 357 358 360 359 357 358 359 358 360 364 367 367 366 367 369 369 369 369 367 366 366 365 364 362 361 360 360 361 361 359 357 354 352 355 355 354 352 350 348 347 346 346 344 344 343 342 342 341 339 339 339 338
343 348 351 353 354 357 357 357 357 359 358 356 358 360 360 358 358 359 358 359 363 365 366 365 364 367 370 370 368 367 367 366 366 365 363 361 361 361 362 361 360 358 354 353 355 356 355 353 350 348 347 347 345 343 343 342 341 341 341 339 339 339 338
340 348 353 353 354 356 357 357 358 359 358 355 356 359 359 358 358 359 358 359 360 361 364 363 361 364 369 370 368 368 368 367 368 366 363 362 362 362 362 361 361 359 356 356 356 357 356 354 351 349 347 346 344 342 343 342 341 340 340 339 339 339 339
340 349 353 355 354 354 356 358 358 359 358 355 353 357 359 356 357 357 355 357 357 356 360 361 359 362 368 370 369 369 369 368 368 367 365 364 362 362 362 361 361 360 358 358 358 357 356 354 350 348 347 346 344 343 342 342 341 340 339 339 338 339 339
345 354 356 355 351 351 355 358 359 361 360 357 354 357 358 354 352 353 352 353 354 354 354 356 356 360 367 371 370 369 370 368 368 367 365 363 362 362 361 360 361 360 359 360 358 356 355 353 350 347 346 346 344 343 343 343 342 341 339 339 338 338 339
349 354 358 357 352 351 354 356 361 364 364 363 359 358 358 353 349 349 350 350 353 352 351 352 353 357 366 371 370 370 370 369 368 367 365 364 362 360 358 358 360 360 359 359 357 354 353 352 350 347 345 346 344 342 344 344 343 341 340 340 339 339 339
350 352 357 361 356 354 355 358 366 369 370 370 363 358 359 355 349 348 349 349 350 352 351 350 350 354 365 371 369 369 370 369 368 367 365 363 360 359 358 357 358 360 359 358 356 354 352 351 350 347 345 346 345 344 345 344 342 342 341 340 340 340 340
353 356 363 365 359 357 359 365 370 372 374 372 364 360 362 358 350 347 349 349 349 350 350 350 350 351 360 368 369 368 370 369 367 367 365 362 358 358 358 356 356 359 359 357 356 355 353 351 350 348 346 344 345 346 346 343 342 343 343 341 340 339 340
361 360 366 365 361 360 364 369 371 371 371 370 364 362 364 360 355 349 349 350 350 349 351 352 351 350 356 365 368 368 369 370 367 367 366 362 358 357 358 357 354 355 358 357 355 355 354 351 350 348 345 345 346 347 345 343 342 344 344 341 339 339 341
366 364 365 365 362 363 366 367 369 370 368 367 366 365 365 363 360 356 353 353 352 350 350 352 354 353 354 361 366 369 369 369 368 368 367 363 359 358 359 357 352 354 358 356 354 354 353 352 351 348 346 347 348 347 344 343 343 344 344 340 338 340 341
355 360 364 366 365 365 366 366 369 370 368 368 369 367 366 365 364 362 358 359 357 353 350 352 356 357 356 359 366 369 370 370 369 369 367 364 363 362 360 358 355 357 357 354 353 353 352 352 351 349 348 348 348 346 344 344 344 344 342 340 340 341 341
338 346 357 365 367 367 366 367 370 370 370 370 369 368 368 367 366 366 363 362 361 356 352 353 358 361 361 362 367 369 371 371 370 368 367 365 364 363 362 360 358 358 356 354 354 353 352 352 351 349 349 348 348 346 343 343 344 342 340 341 341 341 340
335 337 342 354 365 368 368 369 370 371 371 370 369 369 370 369 368 367 365 364 364 360 356 355 360 365 365 365 368 371 371 371 368 367 365 364 364 363 362 360 359 358 356 355 355 353 352 351 350 350 349 348 348 346 343 344 344 340 340 340 338 339 341
336 338 337 343 358 370 370 368 371 372 370 368 369 370 370 370 369 367 365 364 364 362 359 359 364 368 368 368 371 371 371 369 368 366 364 363 362 360 359 358 359 358 356 355 354 353 352 351 350 350 349 348 348 346 345 345 341 340 341 338 335 338 340
336 336 337 338 352 367 370 368 370 372 370 369 370 371 370 370 370 368 365 365 365 364 362 362 368 370 371 372 372 371 371 369 368 366 363 362 360 359 358 357 358 359 356 355 354 352 352 351 349 349 349 347 347 345 345 343 341 341 341 333 330 336 337
337 335 336 341 349 358 366 369 370 371 373 372 370 370 370 369 369 368 366 365 366 366 364 364 369 372 372 372 371 370 370 368 367 364 363 362 359 359 359 358 359 359 357 355 354 352 352 351 349 349 348 347 346 344 342 342 341 340 335 327 326 331 334
339 337 339 348 351 353 362 370 371 371 373 371 368 368 368 367 368 367 365 364 366 367 366 366 370 372 372 371 370 370 369 368 366 363 362 360 359 359 359 359 359 359 357 355 354 352 351 350 349 349 347 347 346 342 340 341 340 335 328 324 325 328 331
338 341 344 351 355 359 367 370 368 370 373 369 367 368 367 366 368 366 364 365 366 367 368 368 370 372 372 370 369 369 369 367 365 363 361 360 359 358 358 358 358 358 357 355 354 353 352 350 349 348 347 346 344 341 340 339 336 330 325 322 323 327 331
335 339 343 349 355 363 369 368 367 371 371 368 366 367 367 367 367 365 364 366 368 369 370 370 371 372 371 368 366 369 369 366 364 362 361 360 359 358 357 356 356 357 356 356 355 353 352 350 349 347 346 345 343 340 339 337 332 327 323 321 322 326 329
337 337 338 346 355 363 368 367 367 369 368 367 365 365 366 366 366 366 366 367 369 369 369 371 371 371 370 368 365 367 367 364 362 361 360 360 358 357 355 354 354 354 355 355 354 353 352 350 348 346 345 344 342 339 337 334 330 324 321 320 321 325 328
341 338 339 346 354 361 367 366 365 366 367 365 364 366 367 367 366 366 366 367 368 367 368 371 371 370 369 367 365 365 364 361 361 361 361 360 358 357 355 354 353 354 353 353 352 351 350 347 345 344 343 342 341 338 335 333 330 324 322 321 322 326 329
343 340 341 346 353 361 365 364 364 366 365 363 365 367 366 364 363 364 365 367 368 367 369 370 370 369 368 366 364 363 361 361 362 361 359 359 359 357 355 354 354 353 352 351 349 347 346 344 342 341 341 339 337 334 333 332 331 327 323 321 322 328 331
347 346 344 345 352 360 363 362 364 364 362 364 366 364 361 362 364 365 367 367 367 367 369 369 369 369 367 364 362 361 359 360 360 359 357 357 357 356 354 354 354 353 351 348 344 342 341 340 339 339 337 336 335 333 331 332 332 330 326 323 324 328 329
351 351 351 355 359 362 363 363 363 360 359 361 361 358 360 365 366 366 365 365 366 368 369 370 369 366 364 363 361 359 358 357 357 356 355 354 355 355 353 353 351 351 349 345 341 338 337 336 336 335 334 334 334 334 334 334 334 333 330 326 325 324 325
354 355 358 360 360 360 360 360 360 360 360 360 360 362 366 368 368 367 365 366 368 369 370 370 367 364 363 362 359 358 357 356 355 354 353 353 353 353 351 350 348 347 345 342 338 337 336 335 334 334 334 333 333 335 335 335 335 334 331 328 327 325 326
359 359 359 359 358 359 362 363 364 364 364 363 364 367 368 369 370 369 368 369 369 368 369 368 366 364 362 360 358 357 356 354 352 352 351 352 351 350 348 347 345 343 342 340 338 337 337 336 335 335 335 335 334 335 336 335 336 336 334 333 332 331 331
359 358 357 357 358 361 363 364 365 364 364 365 366 367 367 369 370 370 369 368 366 366 366 365 364 363 361 358 356 354 352 352 351 348 348 348 348 347 346 344 342 341 341 340 338 338 339 338 337 337 337 336 336 337 337 336 336 336 336 334 333 333 332
358 357 357 357 359 361 360 361 361 362 364 365 364 366 367 368 368 367 365 364 363 363 362 361 360 360 358 355 353 350 349 350 347 345 345 345 344 344 343 342 341 341 341 340 339 340 340 339 338 338 337 336 337 337 337 336 336 336 335 333 332 332 332
354 353 354 354 355 355 355 355 354 354 357 357 357 358 360 361 362 361 360 361 362 362 361 360 359 357 355 353 350 348 348 347 345 343 343 342 342 341 340 340 340 340 340 340 339 339 340 339 337 337 336 336 336 337 336 336 336 336 335 332 330 331 331
356 355 354 353 352 352 352 353 352 352 354 354 353 353 356 357 358 357 358 360 361 361 360 358 356 354 352 350 349 348 346 345 344 342 341 341 340 340 339 339 339 339 339 340 339 339 338 337 337 337 335 335 335 336 337 338 337 337 336 333 332 332 332
354 355 356 357 357 356 357 359 359 358 358 356 354 353 353 355 355 355 357 358 359 359 357 355 353 352 350 348 347 346 344 343 343 341 340 341 340 338 337 337 338 339 338 338 339 339 337 337 338 337 335 334 335 337 338 338 337 336 334 334 333 332 331
347 348 351 353 353 353 355 356 357 358 357 355 353 352 351 351 351 352 355 357 357 356 355 353 352 350 348 347 346 345 343 343 342 340 340 341 339 336 334 334 336 338 338 337 337 336 336 337 337 336 335 336 336 337 337 337 336 335 333 334 333 332 330
347 347 349 351 351 352 352 352 352 353 352 351 350 349 348 348 348 350 353 356 356 355 353 352 350 348 347 346 345 344 343 342 341 340 340 341 339 337 335 334 334 335 335 335 335 335 336 336 336 335 335 336 336 336 336 336 336 334 334 334 333 330 329
345 346 348 350 353 355 354 353 353 351 350 349 348 347 347 347 348 350 353 354 354 353 352 351 350 347 346 345 344 343 343 342 340 340 341 340 339 337 337 337 335 334 333 334 335 336 336 335 334 334 334 334 334 335 334 335 335 333 333 334 332 329 327
Wind_Speed
13 15 17 17 19 19 20 21 21 23 27 29 30 32 33 31 31 29 28 29 29 29 29 28 27 26 26 25 24 23 22 21 20 19 18 17 17 17 17 16 15 15 14 14 13 13 13 12 11 11 11 11 10 10 8 8 8 7 7 8 8 7 7
13 14 15 17 19 20 21 22 22 25 28 30 31 32 33 32 32 31 29 29 30 29 29 28 28 27 26 25 25 24 23 23 21 20 19 18 18 18 18 18 17 17 16 15 13 13 12 12 12 12 11 11 10 10 9 9 9 9 8 8 8 8 8
14 15 17 19 20 20 21 21 22 26 29 30 32 32 33 33 33 33 31 30 31 30 29 29 28 27 26 25 25 24 24 23 23 22 21 19 19 19 19 18 18 18 17 15 14 12 12 12 12 12 12 12 11 11 11 11 11 10 9 9 9 10 10
14 16 17 20 21 19 19 21 22 26 30 32 33 33 34 34 34 34 33 31 32 31 30 30 29 28 27 26 25 25 25 25 24 24 23 21 19 18 18 18 18 18 16 15 13 12 12 12 12 12 13 13 12 13 13 13 13 12 12 11 10 11 11
13 14 15 18 19 18 18 20 21 26 30 32 33 33 33 34 34 33 33 32 32 31 31 31 29 28 27 26 25 24 25 26 25 25 24 22 20 19 18 18 18 18 16 15 13 12 13 14 13 13 14 14 14 14 15 15 14 14 13 13 12 11 12
12 14 15 16 16 18 19 21 24 28 31 32 33 33 33 34 34 33 33 32 31 30 30 30 29 28 27 27 25 24 25 26 26 26 25 23 21 20 19 18 17 17 17 16 15 14 15 16 15 16 16 17 17 16 17 17 17 16 15 14 13 12 13
13 13 15 15 15 18 20 21 24 29 32 32 33 33 33 34 34 33 33 33 33 31 31 31 31 29 28 27 26 25 27 27 28 27 25 23 22 20 19 17 17 17 17 18 18 18 18 18 19 21 22 21 21 20 20 21 21 19 18 17 16 16 15
15 14 15 16 16 16 18 19 21 26 30 31 31 33 34 34 33 33 33 32 33 33 32 32 32 31 29 27 27 27 28 28 28 27 25 24 22 21 19 18 18 19 19 20 21 20 22 23 25 26 27 25 24 23 24 25 24 22 21 21 21 20 18
13 16 15 16 15 15 16 17 18 21 25 28 29 31 33 34 33 33 34 33 32 33 33 32 31 31 29 28 28 29 29 28 27 26 25 24 22 21 20 19 20 22 22 21 22 23 27 29 30 30 30 29 27 27 26 26 25 23 22 22 22 21 19
8 13 14 14 14 14 14 16 16 17 18 21 24 28 31 33 32 32 33 32 32 33 34 33 31 30 29 29 29 30 29 28 27 26 26 24 23 23 23 23 23 24 24 24 26 30 34 34 34 34 33 31 29 28 26 24 23 22 22 22 21 21 20
6 8 10 13 13 12 15 15 14 14 13 15 21 26 29 30 32 32 32 32 32 31 32 32 31 30 30 30 30 30 29 28 27 27 26 25 25 27 27 26 25 27 29 31 32 36 39 38 35 34 33 31 28 28 26 24 23 22 21 21 20 20 20
7 7 9 12 12 12 13 12 13 13 12 15 22 26 26 29 31 32 31 32 32 30 30 31 30 30 30 30 30 30 29 29 28 28 28 29 30 30 30 29 28 30 34 35 34 34 37 38 34 32 33 32 29 28 27 24 23 23 22 21 21 20 19
8 8 9 11 12 12 12 11 13 15 14 16 23 26 25 27 30 31 31 31 31 30 29 29 29 30 30 30 28 28 29 30 29 29 31 34 34 32 30 30 31 32 35 36 33 31 33 34 33 33 34 32 30 28 27 25 24 24 23 22 22 21 20
11 11 12 13 13 13 14 12 13 15 16 18 22 25 25 26 28 29 30 31 31 30 28 27 28 29 29 28 27 26 28 28 29 30 32 33 33 33 32 32 32 34 36 38 35 32 31 31 32 34 33 30 29 28 27 27 25 25 25 24 22 22 21
13 13 13 14 14 14 14 14 14 15 16 18 20 23 24 25 25 26 27 28 29 30 29 27 27 28 28 27 26 25 26 26 26 28 29 28 28 30 32 33 34 36 40 41 37 32 29 28 29 31 30 28 28 28 27 27 26 26 26 25 23 22 22
14 13 12 12 13 15 15 15 16 16 17 17 18 22 23 23 24 25 25 26 27 28 28 26 26 26 27 26 25 24 25 25 25 27 27 27 27 27 29 30 30 31 33 32 29 26 24 24 25 27 28 28 29 29 28 27 27 27 27 28 26 22 21
13 11 11 11 12 14 15 16 16 17 18 19 19 22 24 23 24 25 26 26 26 27 27 26 25 25 26 25 24 24 25 25 26 27 27 28 28 29 31 30 28 28 26 21 20 21 20 20 23 24 25 26 27 28 28 26 27 29 30 31 28 23 22
14 12 11 10 11 14 16 17 18 20 21 20 22 24 24 23 24 24 25 25 25 26 27 26 25 25 25 25 24 25 25 24 25 26 25 25 27 29 31 30 26 24 22 18 17 19 19 20 21 22 23 25 26 27 27 26 28 31 33 34 29 23 22
15 16 13 9 8 12 16 17 18 20 20 20 23 26 26 25 24 23 23 24 24 25 26 26 25 25 25 25 24 24 23 23 24 24 22 21 23 24 25 26 24 21 19 18 17 17 18 19 21 22 24 26 26 25 26 26 29 33 35 34 29 23 20
16 18 14 6 5 10 13 15 15 17 20 22 24 25 25 24 23 22 22 22 22 23 24 25 25 25 24 24 24 24 23 22 23 22 21 21 22 22 22 23 23 22 19 17 16 17 19 20 22 24 27 27 24 22 23 25 29 34 36 35 31 25 20
16 18 13 7 7 12 14 14 14 16 19 23 24 24 24 24 23 22 22 22 22 22 22 23 23 23 23 23 24 24 24 23 22 21 22 22 20 21 22 22 22 21 20 18 18 19 20 22 23 24 25 24 22 20 20 22 27 32 34 32 28 23 18
17 16 12 10 13 14 15 16 16 17 19 22 24 24 25 24 24 24 23 23 22 21 21 22 23 23 23 23 24 24 24 24 22 21 22 21 19 18 18 19 19 18 17 18 18 17 18 20 21 22 21 20 21 20 18 20 26 31 31 29 25 21 18
20 17 15 14 14 15 17 18 18 19 20 22 24 25 24 24 25 24 24 24 23 22 22 22 22 23 23 23 23 23 23 22 22 21 21 20 18 16 15 15 15 15 15 16 16 16 17 18 20 20 19 20 23 22 19 22 28 32 32 29 27 24 21
19 17 14 13 13 14 17 19 19 21 23 23 23 24 24 25 25 24 23 24 23 23 23 22 22 23 22 22 22 22 22 21 21 20 19 18 17 15 14 13 13 13 13 13 13 14 13 13 14 15 17 21 23 20 19 22 26 29 30 30 29 25 23
17 15 12 12 13 15 17 19 20 21 23 23 23 24 25 25 26 24 23 23 23 22 22 21 22 22 22 22 22 21 21 20 19 18 18 17 17 16 15 14 13 13 12 11 12 12 9 8 10 12 16 19 21 20 20 22 25 28 30 30 28 24 23
13 13 12 12 14 15 17 19 19 19 22 23 24 26 26 26 25 24 22 22 22 21 21 22 22 22 22 22 21 20 19 18 18 18 17 17 17 16 16 15 13 14 12 10 11 10 7 9 11 14 17 18 19 20 20 20 23 29 30 29 27 23 22
8 10 11 11 13 16 17 18 18 18 20 22 23 25 26 25 24 23 22 21 20 20 21 23 23 22 22 21 20 19 18 18 18 18 17 16 16 15 15 14 13 13 12 10 10 10 10 13 15 17 19 18 17 18 18 17 19 24 26 28 27 23 19
7 8 8 10 13 16 16 16 17 18 19 21 22 22 23 25 24 23 22 21 21 22 24 24 23 23 22 21 21 19 18 17 17 16 15 15 15 14 14 13 11 11 11 11 13 13 12 14 16 17 18 16 14 15 17 17 18 19 22 25 25 23 20
7 8 10 11 13 15 15 14 15 18 20 22 22 22 23 25 25 24 23 23 23 24 25 24 24 24 23 21 22 21 19 17 15 13 12 13 14 14 13 11 9 10 11 13 14 14 13 14 15 15 15 15 15 15 16 18 18 18 20 22 23 24 22
7 8 9 11 13 16 17 15 15 18 20 21 22 23 24 24 25 24 23 23 23 23 23 23 22 22 21 20 20 19 19 19 17 13 11 11 11 12 12 11 11 12 14 16 15 14 14 14 14 14 14 14 16 15 16 18 18 17 19 21 22 22 20
9 9 10 11 14 17 18 18 19 21 21 21 22 23 22 23 24 23 21 21 22 22 23 23 22 21 20 19 18 17 18 18 17 14 12 12 11 12 12 13 14 14 15 16 15 13 14 14 13 14 14 13 13 13 14 15 14 13 16 19 18 17 16
10 11 11 12 14 17 20 21 21 21 21 21 21 21 20 21 22 22 20 20 21 22 22 23 22 22 22 21 20 19 18 18 16 14 14 14 13 13 14 14 14 14 15 16 15 13 14 14 13 13 13 12 11 12 12 12 12 11 12 14 16 15 14
12 12 13 14 17 19 21 20 18 19 19 20 21 21 20 20 21 21 21 20 20 21 22 22 21 21 21 21 20 19 18 18 16 15 15 15 14 13 14 13 13 14 14 14 14 13 13 13 13 13 12 11 12 12 11 11 12 11 11 11 13 14 13
13 13 13 15 17 18 19 17 16 18 18 18 20 21 21 20 21 21 21 20 19 20 21 21 20 20 19 19 19 19 18 17 16 15 15 14 12 12 12 12 13 14 13 12 12 13 14 13 13 12 12 12 12 12 11 11 11 12 12 12 11 12 12
13 14 14 16 17 17 17 17 17 18 18 18 18 19 19 20 20 20 20 19 20 20 20 20 20 20 19 18 18 18 17 17 16 15 15 12 11 11 11 9 8 11 11 8 7 9 10 10 9 10 11 11 11 10 10 10 11 12 13 13 11 11 12
12 13 14 16 18 19 19 18 18 19 18 17 17 17 18 17 17 17 17 18 18 19 19 19 19 18 17 17 16 17 17 17 15 15 15 14 13 13 12 8 7 9 10 9 7 7 7 7 5 5 7 8 9 10 10 10 10 11 12 12 12 12 13
13 13 14 16 16 16 17 18 17 17 17 15 15 15 15 15 15 14 15 16 16 17 18 17 16 16 15 15 15 16 16 16 15 15 15 14 14 15 13 10 10 10 11 10 9 9 8 7 7 7 8 8 9 11 12 10 9 11 12 14 15 15 15
17 16 16 17 16 16 16 16 15 15 14 13 13 12 12 13 13 13 14 15 15 16 17 16 15 15 14 15 16 16 15 15 15 15 14 14 14 15 14 12 10 10 9 9 9 8 8 7 8 9 9 8 8 11 12 10 10 12 15 17 19 19 17
Wind_Direction
193 212 215 211 207 199 193 192 190 191 192 192 193 193 195 196 194 194 195 195 197 197 197 198 199 201 202 202 202 201 203 205 206 207 209 214 216 215 212 208 205 202 201 202 202 201 199 199 203 205 201 199 206 213 215 214 215 222 223 219 220 220 218
190 208 213 212 210 201 196 191 188 191 191 191 192 192 193 194 193 194 194 194 196 197 197 197 198 200 201 201 201 200 202 204 204 205 207 211 215 215 214 212 208 206 205 205 203 200 197 196 200 204 204 203 205 208 207 207 210 215 219 217 217 218 218
191 203 210 211 209 201 196 192 189 190 191 190 190 191 192 192 192 193 192 193 195 195 196 196 197 199 200 200 200 200 201 203 204 204 205 209 211 212 214 213 210 209 208 207 205 202 199 196 196 201 204 203 201 200 201 202 203 206 212 214 217 219 220
197 203 213 211 204 199 197 194 191 191 191 192 191 190 190 190 190 192 192 193 194 193 194 195 196 197 198 198 199 198 198 201 203 204 205 207 207 208 211 210 209 209 209 208 206 203 198 192 192 200 202 199 197 196 196 199 199 199 202 208 215 222 225
198 202 217 214 200 195 198 197 194 194 193 192 191 189 189 189 189 191 192 193 194 194 194 195 196 197 196 197 197 197 197 199 202 203 204 205 205 205 207 208 207 206 207 208 203 195 188 185 188 195 198 197 197 197 195 196 198 197 199 203 211 220 226
196 199 211 214 201 195 197 197 197 196 194 193 191 189 188 189 190 192 192 193 194 195 194 195 197 197 196 196 197 196 196 198 201 201 201 202 202 203 204 206 204 203 204 203 197 188 184 185 188 191 195 197 199 200 197 195 197 197 196 198 205 215 224
191 194 206 208 204 201 198 198 198 197 196 194 191 189 189 190 192 193 194 194 194 195 195 196 197 197 196 195 195 195 194 197 198 198 198 199 200 201 203 205 204 203 202 197 193 189 186 185 188 191 194 197 199 200 199 197 197 195 192 193 200 209 219
181 180 204 205 203 208 203 199 199 197 197 195 192 191 190 191 193 195 196 196 196 197 198 199 198 197 195 193 193 194 194 196 196 195 196 196 198 200 202 204 204 201 197 193 190 189 189 192 195 196 197 196 196 199 201 199 196 194 192 193 198 204 210
177 166 194 202 202 211 208 202 200 197 196 195 193 191 190 191 194 196 198 198 197 199 200 201 200 197 193 191 192 193 194 194 193 194 195 195 196 198 200 204 202 197 193 191 191 197 202 204 204 202 199 197 195 198 201 201 197 195 196 196 199 203 206
159 152 184 197 200 209 207 201 198 197 195 193 193 191 191 192 194 196 198 198 199 200 201 202 200 196 192 191 193 193 193 193 192 194 195 194 196 200 202 204 198 192 193 195 200 208 212 210 207 204 199 195 195 197 199 199 199 201 200 200 201 203 206
131 145 185 193 201 209 205 198 194 195 192 188 191 192 192 192 192 195 198 199 200 201 201 201 200 196 193 193 195 194 192 192 193 194 193 195 200 204 206 203 194 190 196 201 206 211 213 211 206 202 198 194 192 196 197 196 199 205 203 203 204 203 205
144 168 186 188 201 211 207 197 189 191 189 185 190 193 192 192 192 195 197 199 201 201 199 199 199 198 195 194 197 195 190 191 193 193 193 196 202 207 207 202 196 194 200 207 210 211 212 210 203 198 198 197 194 195 195 195 200 204 204 203 205 204 205
152 179 183 188 201 206 207 200 187 188 188 186 190 192 192 194 195 195 196 199 201 200 198 198 198 199 196 195 198 195 191 192 192 191 193 197 204 207 204 200 201 203 205 209 212 209 209 207 202 200 201 197 194 194 194 196 199 202 202 203 204 203 204
166 178 181 189 198 200 203 199 186 186 187 186 189 190 191 194 197 197 196 197 199 200 199 197 196 198 197 195 195 194 193 194 191 191 194 198 203 205 201 200 206 208 207 211 214 211 210 206 201 202 201 194 192 193 194 196 198 200 201 203 202 200 201
192 190 186 188 192 194 196 193 186 185 186 186 187 188 191 193 195 196 195 195 197 199 200 197 193 194 197 195 193 191 191 191 190 190 192 197 201 203 202 203 206 206 209 215 217 213 212 209 202 200 198 193 191 192 194 196 197 198 199 200 199 197 200
219 210 202 195 191 191 191 189 186 184 185 188 188 189 190 191 191 192 192 192 194 197 200 196 189 189 193 192 190 188 185 186 188 189 192 197 201 204 204 203 205 208 211 215 216 213 212 210 205 201 197 193 192 194 196 197 196 196 197 196 195 194 199
240 229 221 215 200 190 187 187 187 184 186 189 190 190 189 188 188 189 191 192 191 192 195 193 186 186 188 188 186 182 182 184 184 184 191 198 200 204 209 208 211 216 216 214 213 213 213 212 209 207 202 198 196 196 196 196 194 194 196 196 195 194 199
255 252 244 235 210 190 185 188 190 188 188 189 189 189 188 185 185 187 190 190 188 187 189 187 183 181 182 181 180 178 181 183 179 179 188 196 198 206 212 213 215 219 217 215 214 213 214 215 213 209 208 210 207 200 196 196 194 193 195 197 194 193 199
248 253 253 250 225 198 189 191 195 191 188 188 188 188 187 183 182 185 187 185 184 184 184 182 178 176 177 178 177 177 177 176 175 178 185 192 199 207 210 211 215 218 217 215 214 212 213 216 217 214 214 219 218 209 201 197 193 192 195 196 194 196 201
236 248 249 241 233 227 210 199 197 192 188 188 188 186 184 181 179 181 182 182 181 181 182 180 175 173 174 176 177 176 173 172 174 180 188 196 204 210 211 214 219 221 222 220 218 218 220 222 225 223 219 218 217 210 203 197 192 192 194 194 194 198 203
229 241 240 204 202 229 222 202 194 190 187 187 186 182 180 179 176 176 178 180 179 179 179 176 172 171 173 177 179 177 175 177 177 181 192 200 204 209 214 218 222 224 226 226 226 227 227 228 230 226 220 217 213 205 199 195 191 191 191 192 193 197 204
225 227 226 209 204 210 206 196 193 189 184 182 181 178 178 177 174 172 174 175 175 175 174 171 171 173 174 179 181 176 176 181 181 184 193 199 202 209 215 218 222 224 224 226 230 229 223 223 226 224 217 212 204 192 184 183 186 188 189 192 194 198 206
227 222 218 214 207 198 191 188 187 182 179 179 178 176 175 174 171 168 169 169 169 169 168 166 170 173 173 177 178 171 171 179 184 186 192 196 201 210 215 218 221 223 223 225 230 229 222 218 219 218 213 205 196 183 172 177 186 189 191 194 196 199 207
231 228 219 207 199 190 181 179 179 177 175 177 177 175 171 169 166 164 165 166 166 168 168 167 169 170 170 173 173 168 169 177 182 185 189 195 201 208 214 219 223 225 227 228 230 233 234 223 210 202 198 198 194 182 170 175 186 193 195 196 197 200 210
227 225 215 198 192 184 173 173 174 172 174 177 175 171 167 166 164 162 164 165 166 168 167 165 166 166 166 167 166 165 168 173 178 183 187 192 198 205 211 216 222 225 225 227 230 237 244 229 202 184 183 188 189 182 173 174 186 195 198 197 198 203 213
218 213 205 196 189 178 169 170 171 171 176 177 170 166 166 166 162 157 159 162 162 163 162 161 161 160 160 160 158 159 163 168 176 184 187 190 195 203 209 210 215 219 218 219 222 220 215 203 188 176 173 175 176 177 174 174 186 196 200 201 202 207 214
194 194 197 189 174 164 162 166 170 175 176 171 168 168 166 161 154 150 153 156 155 153 153 153 152 151 150 151 152 155 162 169 177 182 185 188 192 197 204 205 205 206 206 198 185 177 183 188 179 169 165 163 166 175 179 182 192 201 206 207 207 211 218
165 172 170 150 143 149 156 162 168 174 171 166 167 167 158 149 144 143 146 147 144 144 144 142 142 143 144 147 151 156 163 167 173 179 182 185 186 184 188 194 192 190 190 181 167 164 173 179 175 172 171 171 175 181 186 192 194 198 207 210 211 217 220
161 152 138 130 137 150 157 158 161 162 159 155 156 153 147 142 137 136 139 138 136 137 137 135 137 140 143 148 153 156 157 156 160 172 180 181 178 172 170 174 176 176 178 173 165 166 171 172 173 178 180 185 193 195 199 201 196 196 205 208 210 214 215
140 140 145 150 153 152 150 147 147 146 145 145 145 144 142 137 129 126 128 128 129 130 130 130 133 136 140 144 147 148 150 148 151 162 172 169 166 164 163 165 171 177 176 171 167 170 173 172 176 182 186 192 199 200 199 197 193 196 204 204 204 209 213
142 146 152 151 146 145 145 143 141 140 139 137 136 135 132 126 120 117 117 121 125 126 125 127 131 134 137 139 142 145 146 142 141 151 162 163 163 164 163 164 169 172 170 170 171 173 172 172 178 186 191 194 194 190 186 183 181 188 200 204 206 212 217
132 135 138 136 136 138 138 135 133 130 126 122 120 120 121 121 120 118 118 122 126 127 129 131 132 135 137 140 144 148 146 142 141 146 153 155 158 162 163 165 166 165 166 173 178 179 176 174 179 187 189 185 179 177 176 177 178 184 197 206 211 214 216
104 113 123 127 129 130 128 124 123 120 117 116 117 117 118 119 120 121 124 127 129 130 132 132 131 134 137 139 142 143 142 143 144 145 149 152 155 161 164 163 161 161 169 178 179 178 180 179 179 185 185 176 171 173 175 179 185 190 197 204 208 211 211
89 93 98 104 111 117 117 113 111 110 109 110 113 116 118 119 122 127 130 132 130 130 130 131 131 134 135 136 139 140 141 145 146 148 153 156 154 156 159 160 162 165 172 179 178 178 184 184 182 186 186 180 179 181 179 182 189 194 197 198 198 201 201
78 76 75 76 80 85 90 93 95 95 95 96 101 108 113 118 124 129 131 131 131 132 132 133 134 135 134 136 139 139 142 149 152 154 156 150 137 134 138 148 162 162 157 158 164 171 178 180 181 189 191 184 181 184 185 188 193 196 196 197 196 192 188
72 74 71 70 70 71 74 78 81 83 86 90 95 102 108 115 123 128 128 129 133 135 135 136 138 138 138 141 141 143 150 158 160 159 159 153 142 136 130 121 127 138 140 142 140 143 158 165 160 169 177 170 167 177 186 189 193 196 195 193 195 192 186
64 68 68 66 67 69 71 74 77 80 83 87 93 99 106 115 121 123 122 125 131 134 135 138 139 139 140 142 143 149 158 163 160 159 161 159 156 154 147 129 117 120 130 140 139 134 141 148 144 150 160 157 161 179 189 191 198 206 201 194 193 190 186
58 60 63 63 61 63 67 69 72 76 80 84 90 96 106 112 115 118 122 126 130 134 138 141 142 144 149 149 149 156 163 160 158 160 160 158 160 165 164 155 141 129 127 137 146 149 152 155 155 159 164 161 164 180 189 191 197 202 198 192 189 185 184